• In Romania
  • List of Countries
  • For 7 days
  • Water Temperature
  • Satellite Maps
  • Weather Map
  • Weather Widgets
  • user-avatar
    Login

    Hourly Weather Ordino

    Today, 24 May, Thursday

    Time Temperature Precipitation Wind Pressure Humidity
    00:00 +9°C° 0 mm 1 mps 634 mmHg 93%
    01:00 +9°C° 0.1 mm 1 mps 634 mmHg 93%
    02:00 +9°C° 0.1 mm 1 mps 634 mmHg 92%
    03:00 +9°C° 0.1 mm 1 mps 634 mmHg 92%
    04:00 +9°C° 0 mm 1 mps 634 mmHg 90%
    05:00 +10°C° 0 mm 1 mps 634 mmHg 89%
    06:00 +11°C° 0 mm 1 mps 635 mmHg 86%
    07:00 +13°C° 0.1 mm 1 mps 635 mmHg 78%
    08:00 +14°C° 0.1 mm 2 mps 636 mmHg 71%
    09:00 +16°C° 0.1 mm 2 mps 637 mmHg 63%
    10:00 +17°C° 0.4 mm 2 mps 637 mmHg 61%
    11:00 +17°C° 0.4 mm 3 mps 637 mmHg 58%
    12:00 +18°C° 0.4 mm 3 mps 637 mmHg 55%
    13:00 +18°C° 0.3 mm 3 mps 637 mmHg 55%
    14:00 +19°C° 0.3 mm 3 mps 636 mmHg 54%
    15:00 +19°C° 0.3 mm 3 mps 636 mmHg 54%
    16:00 +18°C° 0.2 mm 2 mps 636 mmHg 59%
    17:00 +17°C° 0.2 mm 2 mps 636 mmHg 63%
    18:00 +16°C° 0.2 mm 2 mps 635 mmHg 68%
    19:00 +14°C° 0 mm 2 mps 635 mmHg 73%
    20:00 +12°C° 0 mm 1 mps 634 mmHg 78%
    21:00 +10°C° 0 mm 1 mps 634 mmHg 83%
    22:00 +10°C° 0 mm 1 mps 634 mmHg 80%
    23:00 +10°C° 0 mm 1 mps 633 mmHg 78%

    Tomorrow, 25 May, Friday

    Time Temperature Precipitation Wind Pressure Humidity
    00:00 +9°C° 0 mm 1 mps 633 mmHg 75%
    01:00 +9°C° 0 mm 1 mps 633 mmHg 72%
    02:00 +9°C° 0 mm 1 mps 633 mmHg 69%
    03:00 +9°C° 0 mm 1 mps 633 mmHg 66%
    04:00 +9°C° 0 mm 2 mps 633 mmHg 65%
    05:00 +10°C° 0 mm 2 mps 633 mmHg 64%
    06:00 +12°C° 0 mm 2 mps 634 mmHg 63%
    07:00 +14°C° 0 mm 2 mps 634 mmHg 58%
    08:00 +16°C° 0 mm 2 mps 635 mmHg 53%
    09:00 +18°C° 0 mm 3 mps 636 mmHg 47%
    10:00 +19°C° 0.1 mm 3 mps 636 mmHg 46%
    11:00 +20°C° 0.1 mm 4 mps 636 mmHg 44%
    12:00 +21°C° 0.1 mm 5 mps 636 mmHg 42%
    13:00 +21°C° 0 mm 5 mps 636 mmHg 42%
    14:00 +20°C° 0 mm 5 mps 635 mmHg 42%
    15:00 +20°C° 0 mm 5 mps 635 mmHg 42%
    16:00 +19°C° 0 mm 4 mps 634 mmHg 46%
    17:00 +18°C° 0 mm 4 mps 634 mmHg 51%
    18:00 +16°C° 0 mm 3 mps 633 mmHg 56%
    19:00 +13°C° 0 mm 3 mps 633 mmHg 59%
    20:00 +11°C° 0 mm 3 mps 632 mmHg 62%
    21:00 +9°C° 0 mm 2 mps 632 mmHg 66%
    22:00 +9°C° 0 mm 2 mps 632 mmHg 67%
    23:00 +9°C° 0 mm 2 mps 632 mmHg 69%

    Day after tomorrow, 26 May, Saturday

    Time Temperature Precipitation Wind Pressure Humidity
    00:00 +8°C° 0 mm 2 mps 632 mmHg 70%
    01:00 +8°C° 0 mm 2 mps 632 mmHg 74%
    02:00 +8°C° 0 mm 2 mps 631 mmHg 77%
    03:00 +8°C° 0 mm 2 mps 631 mmHg 80%
    04:00 +9°C° 0 mm 2 mps 632 mmHg 78%
    05:00 +10°C° 0 mm 2 mps 632 mmHg 75%
    06:00 +12°C° 0 mm 2 mps 633 mmHg 72%
    07:00 +13°C° 0 mm 2 mps 633 mmHg 66%
    08:00 +14°C° 0 mm 3 mps 634 mmHg 59%
    09:00 +17°C° 0 mm 3 mps 635 mmHg 52%
    10:00 +18°C° 0 mm 4 mps 635 mmHg 49%
    11:00 +19°C° 0 mm 4 mps 635 mmHg 46%
    12:00 +20°C° 0 mm 4 mps 636 mmHg 43%
    13:00 +20°C° 0 mm 4 mps 636 mmHg 43%
    14:00 +21°C° 0 mm 4 mps 636 mmHg 43%
    15:00 +21°C° 0 mm 4 mps 635 mmHg 43%
    16:00 +19°C° 0 mm 4 mps 635 mmHg 50%
    17:00 +18°C° 0 mm 3 mps 635 mmHg 57%
    18:00 +17°C° 0 mm 3 mps 634 mmHg 64%
    19:00 +15°C° 0.1 mm 2 mps 634 mmHg 70%
    20:00 +14°C° 0.1 mm 2 mps 634 mmHg 76%
    21:00 +12°C° 0.1 mm 1 mps 633 mmHg 82%
    22:00 +11°C° 0 mm 1 mps 633 mmHg 80%
    23:00 +11°C° 0 mm 1 mps 633 mmHg 79%

    27 May, Sunday

    Time Temperature Precipitation Wind Pressure Humidity
    00:00 +11°C° 0 mm 1 mps 633 mmHg 77%
    01:00 +10°C° 0 mm 1 mps 633 mmHg 74%
    02:00 +10°C° 0 mm 1 mps 632 mmHg 71%
    03:00 +10°C° 0 mm 1 mps 632 mmHg 68%
    04:00 +11°C° 0 mm 1 mps 632 mmHg 66%
    05:00 +11°C° 0 mm 1 mps 633 mmHg 65%
    06:00 +12°C° 0 mm 1 mps 633 mmHg 63%
    07:00 +14°C° 0 mm 1 mps 634 mmHg 59%
    08:00 +16°C° 0 mm 2 mps 635 mmHg 55%
    09:00 +17°C° 0 mm 2 mps 635 mmHg 51%
    10:00 +17°C° 0.1 mm 2 mps 635 mmHg 54%
    11:00 +17°C° 0.1 mm 2 mps 635 mmHg 58%
    12:00 +17°C° 0.1 mm 2 mps 635 mmHg 61%
    13:00 +16°C° 1.2 mm 2 mps 635 mmHg 69%
    14:00 +15°C° 1.2 mm 2 mps 634 mmHg 76%
    15:00 +14°C° 1.2 mm 1 mps 634 mmHg 84%
    16:00 +14°C° 0.4 mm 1 mps 634 mmHg 83%
    17:00 +14°C° 0.4 mm 1 mps 634 mmHg 82%
    18:00 +14°C° 0.4 mm 1 mps 634 mmHg 82%
    19:00 +12°C° 0.1 mm 1 mps 633 mmHg 85%
    20:00 +11°C° 0.1 mm 1 mps 633 mmHg 89%
    21:00 +10°C° 0.1 mm 1 mps 633 mmHg 92%
    22:00 +10°C° 0.1 mm 1 mps 633 mmHg 92%
    23:00 +9°C° 0.1 mm 1 mps 633 mmHg 92%

    28 May, Monday

    Time Temperature Precipitation Wind Pressure Humidity
    00:00 +9°C° 0.1 mm 1 mps 632 mmHg 92%
    01:00 +9°C° 0 mm 1 mps 632 mmHg 89%
    02:00 +9°C° 0 mm 1 mps 632 mmHg 86%
    03:00 +9°C° 0 mm 1 mps 632 mmHg 83%
    04:00 +9°C° 0.1 mm 1 mps 632 mmHg 81%
    05:00 +10°C° 0.1 mm 1 mps 633 mmHg 79%
    06:00 +11°C° 0.1 mm 1 mps 633 mmHg 77%
    07:00 +12°C° 0.2 mm 1 mps 633 mmHg 73%
    08:00 +14°C° 0.2 mm 1 mps 634 mmHg 70%
    09:00 +15°C° 0.2 mm 2 mps 634 mmHg 66%
    10:00 +15°C° 1.2 mm 2 mps 634 mmHg 68%
    11:00 +16°C° 1.2 mm 2 mps 634 mmHg 70%
    12:00 +16°C° 1.2 mm 3 mps 634 mmHg 71%
    13:00 +16°C° 1.4 mm 3 mps 634 mmHg 74%
    14:00 +15°C° 1.4 mm 2 mps 633 mmHg 77%
    15:00 +15°C° 1.4 mm 2 mps 633 mmHg 79%
    16:00 +14°C° 0.8 mm 2 mps 633 mmHg 82%
    17:00 +14°C° 0.8 mm 2 mps 633 mmHg 85%
    18:00 +13°C° 0.8 mm 2 mps 633 mmHg 87%
    19:00 +12°C° 0.5 mm 2 mps 633 mmHg 89%
    20:00 +10°C° 0.5 mm 2 mps 633 mmHg 91%
    21:00 +10°C° 0.5 mm 1 mps 633 mmHg 93%
    22:00 +10°C° 0.1 mm 1 mps 633 mmHg 93%
    23:00 +10°C° 0.1 mm 1 mps 632 mmHg 92%

    29 May, Tuesday

    Time Temperature Precipitation Wind Pressure Humidity
    00:00 +9°C° 0.1 mm 1 mps 632 mmHg 92%
    01:00 +9°C° 0 mm 1 mps 632 mmHg 93%
    02:00 +8°C° 0 mm 0 mps 632 mmHg 93%
    03:00 +7°C° 0 mm 0 mps 632 mmHg 93%
    04:00 +8°C° 0 mm 0 mps 632 mmHg 91%
    05:00 +9°C° 0 mm 0 mps 632 mmHg 89%
    06:00 +10°C° 0 mm 0 mps 633 mmHg 87%
    07:00 +12°C° 0 mm 1 mps 634 mmHg 79%
    08:00 +14°C° 0 mm 1 mps 634 mmHg 72%
    09:00 +16°C° 0 mm 2 mps 635 mmHg 65%
    10:00 +16°C° 0.1 mm 2 mps 635 mmHg 64%
    11:00 +17°C° 0.1 mm 2 mps 635 mmHg 63%
    12:00 +18°C° 0.1 mm 2 mps 635 mmHg 62%
    13:00 +17°C° 0.6 mm 2 mps 635 mmHg 64%
    14:00 +17°C° 0.6 mm 2 mps 635 mmHg 65%
    15:00 +17°C° 0.6 mm 2 mps 635 mmHg 67%
    16:00 +16°C° 0.7 mm 2 mps 634 mmHg 71%
    17:00 +16°C° 0.7 mm 2 mps 634 mmHg 75%
    18:00 +15°C° 0.7 mm 2 mps 634 mmHg 80%
    19:00 +13°C° 0.2 mm 1 mps 634 mmHg 84%
    20:00 +12°C° 0.2 mm 1 mps 633 mmHg 89%
    21:00 +10°C° 0.2 mm 1 mps 633 mmHg 94%
    22:00 +10°C° 0 mm 1 mps 633 mmHg 94%
    23:00 +10°C° 0 mm 1 mps 633 mmHg 94%
    Show more